| time (UTC) | temp F | wind direction | speed MPH | gust MPH | rain 1hr in | rain 24hr in | rain mn in | humidity % | barometer mb |
| 20260510212731 | 84 | 222 | 2.0 | 4.0 | 0.00 | 0.00 | 0.00 | 31 | 1013.4 |
| 20260510212229 | 84 | 276 | 3.0 | 7.0 | 0.00 | 0.00 | 0.00 | 31 | 1013.3 |
| 20260510211725 | 84 | 199 | 3.0 | 6.0 | 0.00 | 0.00 | 0.00 | 31 | 1013.5 |
| 20260510211220 | 83 | 222 | 3.0 | 7.0 | 0.00 | 0.00 | 0.00 | 32 | 1013.4 |
| 20260510210716 | 82 | 196 | 2.0 | 8.0 | 0.00 | 0.00 | 0.00 | 32 | 1013.6 |
| 20260510210211 | 81 | 227 | 4.0 | 7.0 | 0.00 | 0.00 | 0.00 | 32 | 1013.6 |
| 20260510205706 | 83 | 262 | 6.0 | 8.0 | 0.00 | 0.00 | 0.00 | 32 | 1013.5 |
| 20260510205201 | 82 | 186 | 0.0 | 7.0 | 0.00 | 0.00 | 0.00 | 34 | 1013.6 |
| 20260510204657 | 82 | 181 | 1.0 | 6.0 | 0.00 | 0.00 | 0.00 | 32 | 1013.5 |
| 20260510204154 | 83 | 200 | 1.0 | 7.0 | 0.00 | 0.00 | 0.00 | 32 | 1013.5 |
| 20260510203651 | 83 | 241 | 4.0 | 11.0 | 0.00 | 0.00 | 0.00 | 32 | 1013.5 |
| 20260510203149 | 84 | 198 | 4.0 | 8.0 | 0.00 | 0.00 | 0.00 | 32 | 1013.5 |
| 20260510202643 | 82 | 4 | 4.0 | 7.0 | 0.00 | 0.00 | 0.00 | 33 | 1013.8 |
| 20260510202138 | 81 | 210 | 2.0 | 4.0 | 0.00 | 0.00 | 0.00 | 34 | 1013.4 |
| 20260510201635 | 82 | 198 | 3.0 | 4.0 | 0.00 | 0.00 | 0.00 | 32 | 1013.6 |
| 20260510201132 | 82 | 218 | 2.0 | 6.0 | 0.00 | 0.00 | 0.00 | 33 | 1013.5 |
| 20260510200623 | 82 | 227 | 3.0 | 7.0 | 0.00 | 0.00 | 0.00 | 33 | 1013.5 |
| 20260510200121 | 82 | 190 | 0.0 | 2.0 | 0.00 | 0.00 | 0.00 | 33 | 1013.6 |
| 20260510195618 | 82 | 194 | 0.0 | 6.0 | 0.00 | 0.00 | 0.00 | 34 | 1013.6 |
| 20260510195114 | 82 | 229 | 7.0 | 9.0 | 0.00 | 0.00 | 0.00 | 34 | 1013.9 |
| 20260510194613 | 83 | 249 | 6.0 | 8.0 | 0.00 | 0.00 | 0.00 | 33 | 1013.6 |
| 20260510194111 | 83 | 237 | 4.0 | 7.0 | 0.00 | 0.00 | 0.00 | 33 | 1013.7 |
| 20260510193611 | 82 | 88 | 2.0 | 4.0 | 0.00 | 0.00 | 0.00 | 33 | 1013.9 |
| 20260510193107 | 82 | 231 | 2.0 | 4.0 | 0.00 | 0.00 | 0.00 | 34 | 1013.6 |
| 20260510192601 | 82 | 37 | 3.0 | 7.0 | 0.00 | 0.00 | 0.00 | 33 | 1014.0 |
| 20260510192057 | 81 | 337 | 8.0 | 9.0 | 0.00 | 0.00 | 0.00 | 33 | 1013.9 |
| 20260510191554 | 80 | 229 | 1.0 | 3.0 | 0.00 | 0.00 | 0.00 | 34 | 1014.0 |
| 20260510191050 | 79 | 225 | 1.0 | 4.0 | 0.00 | 0.00 | 0.00 | 34 | 1014.0 |
| 20260510190542 | 81 | 228 | 6.0 | 10.0 | 0.00 | 0.00 | 0.00 | 34 | 1014.1 |
| 20260510190040 | 80 | 183 | 1.0 | 6.0 | 0.00 | 0.00 | 0.00 | 33 | 1014.0 |
| 20260510185536 | 81 | 173 | 6.0 | 8.0 | 0.00 | 0.00 | 0.00 | 34 | 1014.3 |
| 20260510185034 | 81 | 247 | 3.0 | 8.0 | 0.00 | 0.00 | 0.00 | 34 | 1014.3 |
| 20260510184531 | 80 | 192 | 4.0 | 6.0 | 0.00 | 0.00 | 0.00 | 34 | 1014.0 |
| 20260510184026 | 80 | 154 | 1.0 | 4.0 | 0.00 | 0.00 | 0.00 | 34 | 1014.0 |
| 20260510183522 | 81 | 220 | 9.0 | 11.0 | 0.00 | 0.00 | 0.00 | 34 | 1014.1 |
| 20260510183017 | 81 | 216 | 2.0 | 8.0 | 0.00 | 0.00 | 0.00 | 34 | 1014.1 |
| 20260510182514 | 80 | 294 | 4.0 | 11.0 | 0.00 | 0.00 | 0.00 | 34 | 1014.3 |
| 20260510182009 | 81 | 187 | 4.0 | 7.0 | 0.00 | 0.00 | 0.00 | 33 | 1014.0 |
| 20260510181508 | 82 | 164 | 3.0 | 4.0 | 0.00 | 0.00 | 0.00 | 34 | 1014.5 |
| 20260510181003 | 81 | 163 | 5.0 | 7.0 | 0.00 | 0.00 | 0.00 | 34 | 1014.7 |
| 20260510180501 | 80 | 186 | 2.0 | 3.0 | 0.00 | 0.00 | 0.00 | 33 | 1014.5 |
| 20260510175957 | 81 | 154 | 4.0 | 6.0 | 0.00 | 0.00 | 0.00 | 33 | 1014.3 |
| 20260510175453 | 80 | 172 | 1.0 | 6.0 | 0.00 | 0.00 | 0.00 | 33 | 1014.6 |
| 20260510174948 | 80 | 156 | 5.0 | 9.0 | 0.00 | 0.00 | 0.00 | 33 | 1014.5 |
| 20260510174447 | 80 | 218 | 3.0 | 6.0 | 0.00 | 0.00 | 0.00 | 33 | 1014.8 |
| 20260510173944 | 80 | 197 | 2.0 | 6.0 | 0.00 | 0.00 | 0.00 | 32 | 1014.7 |
| 20260510173439 | 79 | 170 | 5.0 | 7.0 | 0.00 | 0.00 | 0.00 | 32 | 1014.8 |
| 20260510172936 | 80 | 195 | 6.0 | 9.0 | 0.00 | 0.00 | 0.00 | 32 | 1014.6 |
| 20260510172432 | 80 | 186 | 2.0 | 4.0 | 0.00 | 0.00 | 0.00 | 32 | 1014.8 |
| 20260510171928 | 80 | 260 | 2.0 | 3.0 | 0.00 | 0.00 | 0.00 | 32 | 1014.9 |
| 20260510171425 | 79 | 203 | 4.0 | 7.0 | 0.00 | 0.00 | 0.00 | 33 | 1015.2 |
| 20260510170922 | 79 | 202 | 6.0 | 8.0 | 0.00 | 0.00 | 0.00 | 32 | 1015.1 |
| 20260510170419 | 80 | 195 | 6.0 | 8.0 | 0.00 | 0.00 | 0.00 | 31 | 1014.9 |
| 20260510165914 | 80 | 216 | 5.0 | 6.0 | 0.00 | 0.00 | 0.00 | 31 | 1015.2 |
| 20260510165410 | 80 | 236 | 2.0 | 4.0 | 0.00 | 0.00 | 0.00 | 31 | 1015.0 |
| 20260510164907 | 79 | 192 | 0.0 | 3.0 | 0.00 | 0.00 | 0.00 | 32 | 1014.9 |
| 20260510164404 | 79 | 207 | 4.0 | 7.0 | 0.00 | 0.00 | 0.00 | 32 | 1014.7 |
| 20260510163859 | 78 | 246 | 3.0 | 7.0 | 0.00 | 0.00 | 0.00 | 31 | 1015.1 |
| 20260510163355 | 78 | 218 | 3.0 | 7.0 | 0.00 | 0.00 | 0.00 | 34 | 1015.1 |
| 20260510162849 | 78 | 169 | 3.0 | 8.0 | 0.00 | 0.00 | 0.00 | 35 | 1015.0 |
| 20260510162347 | 77 | 192 | 2.0 | 7.0 | 0.00 | 0.00 | 0.00 | 35 | 1015.1 |
| 20260510161842 | 78 | 220 | 6.0 | 9.0 | 0.00 | 0.00 | 0.00 | 34 | 1015.4 |
| 20260510161339 | 80 | 271 | 2.0 | 7.0 | 0.00 | 0.00 | 0.00 | 36 | 1015.1 |
| 20260510160836 | 79 | 317 | 2.0 | 4.0 | 0.00 | 0.00 | 0.00 | 38 | 1015.3 |
| 20260510160332 | 77 | 192 | 0.0 | 4.0 | 0.00 | 0.00 | 0.00 | 37 | 1015.3 |
| 20260510155826 | 77 | 228 | 6.0 | 9.0 | 0.00 | 0.00 | 0.00 | 37 | 1015.5 |
| 20260510155324 | 77 | 225 | 4.0 | 8.0 | 0.00 | 0.00 | 0.00 | 38 | 1015.3 |
| 20260510154820 | 78 | 241 | 4.0 | 10.0 | 0.00 | 0.00 | 0.00 | 40 | 1015.4 |
| 20260510154315 | 77 | 112 | 2.0 | 4.0 | 0.00 | 0.00 | 0.00 | 42 | 1015.1 |
| 20260510153810 | 77 | 170 | 1.0 | 4.0 | 0.00 | 0.00 | 0.00 | 42 | 1015.6 |
| 20260510153306 | 79 | 27 | 3.0 | 4.0 | 0.00 | 0.00 | 0.00 | 42 | 1015.4 |
| 20260510152803 | 77 | 179 | 0.0 | 1.0 | 0.00 | 0.00 | 0.00 | 45 | 1015.4 |
| 20260510152300 | 77 | 196 | 0.0 | 3.0 | 0.00 | 0.00 | 0.00 | 46 | 1015.5 |
| 20260510151756 | 76 | 183 | 0.0 | 6.0 | 0.00 | 0.00 | 0.00 | 45 | 1015.6 |
| 20260510151255 | 76 | 219 | 4.0 | 4.0 | 0.00 | 0.00 | 0.00 | 48 | 1015.7 |
| 20260510150749 | 76 | 207 | 3.0 | 4.0 | 0.00 | 0.00 | 0.00 | 49 | 1015.5 |
| 20260510150246 | 75 | 211 | 1.0 | 6.0 | 0.00 | 0.00 | 0.00 | 50 | 1015.7 |
| 20260510145742 | 75 | 210 | 1.0 | 3.0 | 0.00 | 0.00 | 0.00 | 52 | 1015.8 |
| 20260510145239 | 77 | 202 | 4.0 | 6.0 | 0.00 | 0.00 | 0.00 | 53 | 1015.5 |
| 20260510144735 | 76 | 202 | 0.0 | 1.0 | 0.00 | 0.00 | 0.00 | 56 | 1015.8 |
| 20260510144232 | 74 | 164 | 0.0 | 1.0 | 0.00 | 0.00 | 0.00 | 57 | 1015.6 |
| 20260510143726 | 74 | 164 | 3.0 | 3.0 | 0.00 | 0.00 | 0.00 | 59 | 1015.5 |
| 20260510143223 | 73 | 201 | 1.0 | 4.0 | 0.00 | 0.00 | 0.00 | 60 | 1015.7 |
| 20260510142719 | 72 | 189 | 0.0 | 2.0 | 0.00 | 0.00 | 0.00 | 62 | 1015.5 |
| 20260510142216 | 72 | 205 | 2.0 | 4.0 | 0.00 | 0.00 | 0.00 | 62 | 1015.5 |
| 20260510141714 | 71 | 215 | 4.0 | 6.0 | 0.00 | 0.00 | 0.00 | 64 | 1015.6 |
| 20260510141212 | 71 | 193 | 2.0 | 4.0 | 0.00 | 0.00 | 0.00 | 67 | 1015.6 |
| 20260510140708 | 71 | 210 | 2.0 | 2.0 | 0.00 | 0.00 | 0.00 | 70 | 1015.5 |
| 20260510140207 | 71 | 196 | 0.0 | 3.0 | 0.00 | 0.00 | 0.00 | 72 | 1015.6 |
| 20260510135702 | 70 | 199 | 0.0 | 1.0 | 0.00 | 0.00 | 0.00 | 75 | 1015.5 |
| 20260510135158 | 69 | 201 | 2.0 | 2.0 | 0.00 | 0.00 | 0.00 | 76 | 1015.8 |
| 20260510134656 | 67 | 200 | 1.0 | 3.0 | 0.00 | 0.00 | 0.00 | 77 | 1015.9 |
| 20260510134153 | 68 | 226 | 3.0 | 3.0 | 0.00 | 0.00 | 0.00 | 79 | 1015.7 |
| 20260510133649 | 67 | 223 | 2.0 | 4.0 | 0.00 | 0.00 | 0.00 | 80 | 1015.6 |
| 20260510133144 | 67 | 183 | 2.0 | 3.0 | 0.00 | 0.00 | 0.00 | 82 | 1015.6 |
| 20260510132641 | 66 | 172 | 1.0 | 3.0 | 0.00 | 0.00 | 0.00 | 85 | 1015.7 |
| 20260510132138 | 66 | 196 | 2.0 | 3.0 | 0.00 | 0.00 | 0.00 | 86 | 1015.7 |
| 20260510131636 | 66 | 217 | 3.0 | 3.0 | 0.00 | 0.00 | 0.00 | 88 | 1015.7 |
| 20260510131133 | 65 | 194 | 0.0 | 1.0 | 0.00 | 0.00 | 0.00 | 90 | 1015.6 |
| 20260510130630 | 64 | 188 | 0.0 | 1.0 | 0.00 | 0.00 | 0.00 | 91 | 1015.6 |
| 20260510130127 | 64 | 187 | 2.0 | 2.0 | 0.00 | 0.00 | 0.00 | 92 | 1015.4 |
| 20260510125624 | 64 | 190 | 0.0 | 0.0 | 0.00 | 0.00 | 0.00 | 93 | 1015.4 |
| 20260510125120 | 62 | 189 | 0.0 | 0.0 | 0.00 | 0.00 | 0.00 | 94 | 1015.3 |
| 20260510124617 | 61 | 191 | 0.0 | 1.0 | 0.00 | 0.00 | 0.00 | 94 | 1015.1 |
| 20260510124114 | 60 | 200 | 1.0 | 1.0 | 0.00 | 0.00 | 0.00 | 94 | 1015.4 |
| 20260510123609 | 61 | 199 | 1.0 | 2.0 | 0.00 | 0.00 | 0.00 | 95 | 1015.4 |
| 20260510123105 | 60 | 184 | 0.0 | 0.0 | 0.00 | 0.00 | 0.00 | 96 | 1015.5 |
| 20260510122601 | 60 | 208 | 1.0 | 1.0 | 0.00 | 0.00 | 0.00 | 96 | 1015.3 |
| 20260510122057 | 59 | 191 | 1.0 | 1.0 | 0.00 | 0.00 | 0.00 | 96 | 1015.4 |
| 20260510121554 | 59 | 188 | 0.0 | 0.0 | 0.00 | 0.00 | 0.00 | 96 | 1015.3 |
| 20260510121052 | 58 | 184 | 0.0 | 1.0 | 0.00 | 0.00 | 0.00 | 97 | 1015.1 |
| 20260510120549 | 58 | 179 | 0.0 | 1.0 | 0.00 | 0.00 | 0.00 | 98 | 1015.1 |
| 20260510120044 | 57 | 189 | 0.0 | 0.0 | 0.00 | 0.00 | 0.00 | 97 | 1015.1 |
| 20260510115541 | 57 | 182 | 1.0 | 1.0 | 0.00 | 0.00 | 0.00 | 97 | 1015.0 |
| 20260510115038 | 56 | 191 | 0.0 | 0.0 | 0.00 | 0.00 | 0.00 | 97 | 1014.7 |
| 20260510114534 | 55 | 186 | 0.0 | 0.0 | 0.00 | 0.00 | 0.00 | 98 | 1014.8 |
| 20260510114030 | 54 | 190 | 0.0 | 0.0 | 0.00 | 0.00 | 0.00 | 98 | 1014.6 |
| 20260510113526 | 53 | 191 | 0.0 | 0.0 | 0.00 | 0.00 | 0.00 | 98 | 1014.5 |
| 20260510113024 | 52 | 176 | 0.0 | 1.0 | 0.00 | 0.00 | 0.00 | 98 | 1014.4 |
| 20260510112520 | 52 | 152 | 1.0 | 1.0 | 0.00 | 0.00 | 0.00 | 98 | 1014.1 |
| 20260510112016 | 51 | 172 | 0.0 | 0.0 | 0.00 | 0.00 | 0.00 | 98 | 1014.1 |
| 20260510111513 | 50 | 174 | 0.0 | 0.0 | 0.00 | 0.00 | 0.00 | 98 | 1013.9 |
| 20260510111009 | 48 | 147 | 1.0 | 2.0 | 0.00 | 0.00 | 0.00 | 98 | 1013.7 |
| 20260510110505 | 47 | 179 | 0.0 | 1.0 | 0.00 | 0.00 | 0.00 | 98 | 1013.7 |
| 20260510110002 | 47 | 200 | 0.0 | 0.0 | 0.00 | 0.00 | 0.00 | 98 | 1013.7 |
| 20260510105456 | 47 | 159 | 1.0 | 1.0 | 0.00 | 0.00 | 0.00 | 98 | 1013.7 |
| 20260510104952 | 47 | 184 | 0.0 | 0.0 | 0.00 | 0.00 | 0.00 | 98 | 1013.7 |
| 20260510104449 | 47 | 175 | 0.0 | 0.0 | 0.00 | 0.00 | 0.00 | 98 | 1013.9 |
| 20260510103945 | 47 | 169 | 0.0 | 1.0 | 0.00 | 0.00 | 0.00 | 97 | 1013.7 |
| 20260510103443 | 47 | 151 | 1.0 | 2.0 | 0.00 | 0.00 | 0.00 | 97 | 1013.5 |
| 20260510102938 | 47 | 182 | 0.0 | 0.0 | 0.00 | 0.00 | 0.00 | 97 | 1013.7 |
| 20260510102434 | 47 | 182 | 0.0 | 0.0 | 0.00 | 0.00 | 0.00 | 97 | 1013.3 |
| 20260510101931 | 47 | 181 | 0.0 | 2.0 | 0.00 | 0.00 | 0.00 | 97 | 1013.2 |
| 20260510101429 | 48 | 171 | 0.0 | 1.0 | 0.00 | 0.00 | 0.00 | 97 | 1013.3 |
| 20260510100927 | 48 | 185 | 0.0 | 0.0 | 0.00 | 0.00 | 0.00 | 97 | 1012.9 |
| 20260510100423 | 48 | 139 | 1.0 | 2.0 | 0.00 | 0.00 | 0.00 | 97 | 1012.9 |
| 20260510095919 | 49 | 80 | 2.0 | 3.0 | 0.00 | 0.00 | 0.00 | 97 | 1013.1 |
| 20260510095415 | 49 | 121 | 1.0 | 2.0 | 0.00 | 0.00 | 0.00 | 97 | 1012.7 |
| 20260510094914 | 49 | 76 | 3.0 | 3.0 | 0.00 | 0.00 | 0.00 | 97 | 1013.0 |
| 20260510094409 | 49 | 66 | 2.0 | 3.0 | 0.00 | 0.00 | 0.00 | 97 | 1012.8 |
| 20260510093905 | 49 | 74 | 2.0 | 3.0 | 0.00 | 0.00 | 0.00 | 97 | 1012.8 |
| 20260510093401 | 48 | 134 | 2.0 | 2.0 | 0.00 | 0.00 | 0.00 | 97 | 1012.9 |
| 20260510092858 | 48 | 150 | 2.0 | 2.0 | 0.00 | 0.00 | 0.00 | 97 | 1012.8 |
| 20260510092355 | 48 | 145 | 1.0 | 2.0 | 0.00 | 0.00 | 0.00 | 97 | 1012.6 |
| 20260510091849 | 49 | 154 | 1.0 | 1.0 | 0.00 | 0.00 | 0.00 | 97 | 1012.8 |
| 20260510091347 | 48 | 175 | 0.0 | 1.0 | 0.00 | 0.00 | 0.00 | 97 | 1012.5 |
| 20260510090843 | 49 | 192 | 0.0 | 0.0 | 0.00 | 0.00 | 0.00 | 97 | 1012.5 |
| 20260510090340 | 50 | 193 | 0.0 | 0.0 | 0.00 | 0.00 | 0.00 | 97 | 1012.5 |
| 20260510085835 | 49 | 155 | 2.0 | 2.0 | 0.00 | 0.00 | 0.00 | 97 | 1012.5 |
| 20260510085330 | 48 | 156 | 1.0 | 1.0 | 0.00 | 0.00 | 0.00 | 97 | 1012.6 |
| 20260510084826 | 48 | 187 | 0.0 | 0.0 | 0.00 | 0.00 | 0.00 | 97 | 1012.4 |
| 20260510084323 | 48 | 189 | 0.0 | 0.0 | 0.00 | 0.00 | 0.00 | 97 | 1012.3 |
| 20260510083820 | 48 | 195 | 0.0 | 0.0 | 0.00 | 0.00 | 0.00 | 96 | 1012.2 |
| 20260510083317 | 48 | 196 | 0.0 | 0.0 | 0.00 | 0.00 | 0.00 | 96 | 1012.2 |
| 20260510082812 | 49 | 199 | 0.0 | 0.0 | 0.00 | 0.00 | 0.00 | 96 | 1012.0 |
| 20260510082310 | 48 | 169 | 0.0 | 0.0 | 0.00 | 0.00 | 0.00 | 96 | 1012.2 |
| 20260510081809 | 48 | 192 | 0.0 | 0.0 | 0.00 | 0.00 | 0.00 | 96 | 1012.1 |
| 20260510081305 | 49 | 166 | 1.0 | 1.0 | 0.00 | 0.00 | 0.00 | 96 | 1012.2 |
| 20260510080801 | 49 | 187 | 0.0 | 0.0 | 0.00 | 0.00 | 0.00 | 96 | 1012.1 |
| 20260510080255 | 49 | 196 | 0.0 | 0.0 | 0.00 | 0.00 | 0.00 | 96 | 1011.9 |
| 20260510075753 | 49 | 190 | 0.0 | 0.0 | 0.00 | 0.00 | 0.00 | 96 | 1011.9 |
| 20260510075250 | 49 | 173 | 2.0 | 2.0 | 0.00 | 0.00 | 0.00 | 96 | 1011.9 |
| 20260510074747 | 49 | 154 | 1.0 | 2.0 | 0.00 | 0.00 | 0.00 | 96 | 1012.0 |
| 20260510074244 | 49 | 194 | 0.0 | 0.0 | 0.00 | 0.00 | 0.00 | 96 | 1011.9 |
| 20260510073740 | 49 | 187 | 0.0 | 1.0 | 0.00 | 0.00 | 0.00 | 96 | 1011.8 |
| 20260510073236 | 49 | 191 | 0.0 | 0.0 | 0.00 | 0.00 | 0.00 | 96 | 1011.8 |
| 20260510072732 | 50 | 185 | 0.0 | 0.0 | 0.00 | 0.00 | 0.00 | 96 | 1011.8 |
| 20260510072229 | 50 | 184 | 0.0 | 1.0 | 0.00 | 0.00 | 0.00 | 96 | 1012.0 |
| 20260510071725 | 50 | 155 | 1.0 | 2.0 | 0.00 | 0.00 | 0.00 | 96 | 1011.8 |
| 20260510071222 | 50 | 186 | 0.0 | 0.0 | 0.00 | 0.00 | 0.00 | 95 | 1011.8 |
| 20260510070720 | 50 | 194 | 0.0 | 0.0 | 0.00 | 0.00 | 0.00 | 95 | 1011.9 |
| 20260510070218 | 51 | 186 | 0.0 | 0.0 | 0.00 | 0.00 | 0.00 | 95 | 1011.8 |
| 20260510065712 | 51 | 190 | 0.0 | 0.0 | 0.00 | 0.00 | 0.00 | 96 | 1011.8 |
| 20260510065208 | 51 | 186 | 0.0 | 1.0 | 0.00 | 0.00 | 0.00 | 96 | 1011.9 |
| 20260510064705 | 51 | 188 | 0.0 | 1.0 | 0.00 | 0.00 | 0.00 | 96 | 1011.5 |
| 20260510064203 | 51 | 181 | 0.0 | 0.0 | 0.00 | 0.00 | 0.00 | 95 | 1011.8 |
| 20260510063700 | 51 | 192 | 0.0 | 0.0 | 0.00 | 0.00 | 0.00 | 95 | 1011.9 |
| 20260510063155 | 51 | 196 | 0.0 | 0.0 | 0.00 | 0.00 | 0.00 | 95 | 1011.9 |
| 20260510062652 | 52 | 196 | 0.0 | 0.0 | 0.00 | 0.00 | 0.00 | 95 | 1011.7 |
| 20260510062148 | 52 | 197 | 0.0 | 1.0 | 0.00 | 0.00 | 0.00 | 95 | 1011.9 |
| 20260510061643 | 52 | 191 | 0.0 | 0.0 | 0.00 | 0.00 | 0.00 | 95 | 1011.7 |
| 20260510061141 | 52 | 199 | 0.0 | 1.0 | 0.00 | 0.00 | 0.00 | 95 | 1011.8 |
| 20260510060637 | 52 | 177 | 0.0 | 0.0 | 0.00 | 0.00 | 0.00 | 95 | 1011.8 |
| 20260510060134 | 53 | 177 | 1.0 | 1.0 | 0.00 | 0.00 | 0.00 | 95 | 1011.9 |
| 20260510055630 | 53 | 199 | 0.0 | 0.0 | 0.00 | 0.00 | 0.00 | 95 | 1012.1 |
| 20260510055128 | 53 | 194 | 0.0 | 1.0 | 0.00 | 0.00 | 0.00 | 95 | 1012.0 |
| 20260510054623 | 53 | 199 | 0.0 | 0.0 | 0.00 | 0.00 | 0.00 | 95 | 1012.0 |
| 20260510054119 | 53 | 191 | 0.0 | 1.0 | 0.00 | 0.00 | 0.00 | 95 | 1012.1 |
| 20260510053618 | 52 | 188 | 0.0 | 0.0 | 0.00 | 0.00 | 0.00 | 95 | 1012.1 |
| 20260510053116 | 53 | 218 | 0.0 | 0.0 | 0.00 | 0.00 | 0.00 | 94 | 1012.0 |
| 20260510052611 | 53 | 177 | 0.0 | 0.0 | 0.00 | 0.00 | 0.00 | 94 | 1012.0 |
| 20260510052108 | 53 | 177 | 0.0 | 0.0 | 0.00 | 0.00 | 0.00 | 94 | 1012.3 |
| 20260510051603 | 53 | 177 | 0.0 | 0.0 | 0.00 | 0.00 | 0.00 | 94 | 1012.2 |
| 20260510051101 | 53 | 177 | 0.0 | 0.0 | 0.00 | 0.00 | 0.00 | 94 | 1012.2 |
| 20260510050558 | 53 | 177 | 0.0 | 0.0 | 0.00 | 0.00 | 0.00 | 94 | 1012.3 |
| 20260510050055 | 53 | 177 | 0.0 | 0.0 | 0.00 | 0.00 | 0.00 | 94 | 1012.4 |
| 20260510045552 | 54 | 177 | 0.0 | 0.0 | 0.00 | 0.00 | 0.00 | 94 | 1012.3 |
| 20260510045048 | 54 | 177 | 0.0 | 1.0 | 0.00 | 0.00 | 0.00 | 94 | 1012.2 |
| 20260510044545 | 54 | 185 | 0.0 | 0.0 | 0.00 | 0.00 | 0.00 | 94 | 1012.3 |
| 20260510044042 | 55 | 185 | 0.0 | 0.0 | 0.00 | 0.00 | 0.00 | 94 | 1012.0 |
| 20260510043537 | 55 | 185 | 0.0 | 0.0 | 0.00 | 0.00 | 0.00 | 93 | 1012.3 |
| 20260510043033 | 55 | 185 | 0.0 | 0.0 | 0.00 | 0.00 | 0.00 | 93 | 1012.5 |
| 20260510042532 | 55 | 185 | 0.0 | 0.0 | 0.00 | 0.00 | 0.00 | 93 | 1012.1 |
| 20260510042028 | 55 | 185 | 0.0 | 1.0 | 0.00 | 0.00 | 0.00 | 93 | 1012.1 |
| 20260510041526 | 55 | 189 | 0.0 | 0.0 | 0.00 | 0.00 | 0.00 | 93 | 1012.0 |
| 20260510041023 | 55 | 189 | 0.0 | 0.0 | 0.00 | 0.00 | 0.00 | 93 | 1012.1 |
| 20260510040520 | 55 | 189 | 0.0 | 0.0 | 0.00 | 0.00 | 0.00 | 93 | 1012.2 |
| 20260510040015 | 56 | 189 | 0.0 | 0.0 | 0.00 | 0.00 | 0.00 | 92 | 1012.1 |
| 20260510035512 | 56 | 199 | 0.0 | 0.0 | 0.00 | 0.00 | 0.00 | 92 | 1012.0 |
| 20260510035011 | 57 | 199 | 0.0 | 0.0 | 0.00 | 0.00 | 0.00 | 92 | 1011.8 |
| 20260510034510 | 57 | 201 | 0.0 | 0.0 | 0.00 | 0.00 | 0.00 | 92 | 1012.1 |
| 20260510034006 | 57 | 179 | 0.0 | 1.0 | 0.00 | 0.00 | 0.00 | 92 | 1012.2 |
| 20260510033502 | 57 | 179 | 0.0 | 0.0 | 0.00 | 0.00 | 0.00 | 92 | 1012.2 |
| 20260510033000 | 57 | 189 | 0.0 | 0.0 | 0.00 | 0.00 | 0.00 | 91 | 1012.2 |
| 20260510032456 | 58 | 196 | 0.0 | 1.0 | 0.00 | 0.00 | 0.00 | 91 | 1012.4 |
| 20260510031951 | 58 | 182 | 0.0 | 0.0 | 0.00 | 0.00 | 0.00 | 91 | 1012.2 |
| 20260510031447 | 58 | 204 | 0.0 | 1.0 | 0.00 | 0.00 | 0.00 | 91 | 1012.0 |
| 20260510030943 | 59 | 153 | 1.0 | 2.0 | 0.00 | 0.00 | 0.00 | 90 | 1012.1 |
| 20260510030438 | 59 | 157 | 1.0 | 1.0 | 0.00 | 0.00 | 0.00 | 90 | 1012.1 |
| 20260510025936 | 59 | 168 | 1.0 | 1.0 | 0.00 | 0.00 | 0.00 | 90 | 1012.2 |
| 20260510025433 | 59 | 187 | 0.0 | 0.0 | 0.00 | 0.00 | 0.00 | 89 | 1012.2 |
| 20260510024931 | 59 | 184 | 0.0 | 0.0 | 0.00 | 0.00 | 0.00 | 89 | 1012.0 |
| 20260510024427 | 59 | 182 | 0.0 | 0.0 | 0.00 | 0.00 | 0.00 | 89 | 1012.0 |
| 20260510023923 | 60 | 187 | 0.0 | 0.0 | 0.00 | 0.00 | 0.00 | 88 | 1011.9 |
| 20260510023419 | 60 | 182 | 0.0 | 0.0 | 0.00 | 0.00 | 0.00 | 88 | 1012.1 |
| 20260510022917 | 60 | 184 | 0.0 | 2.0 | 0.00 | 0.00 | 0.00 | 88 | 1011.8 |
| 20260510022415 | 60 | 151 | 1.0 | 1.0 | 0.00 | 0.00 | 0.00 | 87 | 1011.8 |
| 20260510021914 | 60 | 181 | 0.0 | 0.0 | 0.00 | 0.00 | 0.00 | 87 | 1011.4 |
| 20260510021413 | 61 | 184 | 0.0 | 0.0 | 0.00 | 0.00 | 0.00 | 86 | 1011.8 |
| 20260510020909 | 62 | 194 | 0.0 | 1.0 | 0.00 | 0.00 | 0.00 | 86 | 1011.3 |
| 20260510020404 | 62 | 177 | 0.0 | 0.0 | 0.00 | 0.00 | 0.00 | 86 | 1011.3 |
| 20260510015900 | 62 | 161 | 1.0 | 2.0 | 0.00 | 0.00 | 0.00 | 85 | 1011.2 |
| 20260510015356 | 62 | 152 | 1.0 | 2.0 | 0.00 | 0.00 | 0.00 | 85 | 1011.4 |
| 20260510014851 | 62 | 139 | 2.0 | 2.0 | 0.00 | 0.00 | 0.00 | 84 | 1011.2 |
| 20260510014349 | 63 | 147 | 2.0 | 2.0 | 0.00 | 0.00 | 0.00 | 83 | 1010.9 |
| 20260510013845 | 64 | 149 | 1.0 | 2.0 | 0.00 | 0.00 | 0.00 | 83 | 1011.3 |
| 20260510013341 | 64 | 207 | 1.0 | 2.0 | 0.00 | 0.00 | 0.00 | 82 | 1011.3 |
| 20260510012836 | 64 | 201 | 1.0 | 2.0 | 0.00 | 0.00 | 0.00 | 82 | 1011.0 |
| 20260510012335 | 64 | 207 | 1.0 | 2.0 | 0.00 | 0.00 | 0.00 | 81 | 1010.8 |
| 20260510011831 | 65 | 201 | 0.0 | 1.0 | 0.00 | 0.00 | 0.00 | 81 | 1010.8 |
| 20260510011326 | 66 | 206 | 1.0 | 1.0 | 0.00 | 0.00 | 0.00 | 80 | 1010.6 |
| 20260510010823 | 66 | 211 | 3.0 | 4.0 | 0.00 | 0.00 | 0.00 | 80 | 1010.6 |
| 20260510010320 | 66 | 192 | 1.0 | 1.0 | 0.00 | 0.00 | 0.00 | 80 | 1010.3 |
| 20260510005817 | 66 | 192 | 0.0 | 2.0 | 0.00 | 0.00 | 0.00 | 79 | 1010.3 |
| 20260510005313 | 66 | 198 | 0.0 | 0.0 | 0.00 | 0.00 | 0.00 | 79 | 1010.2 |
| 20260510004811 | 66 | 188 | 1.0 | 1.0 | 0.00 | 0.00 | 0.00 | 78 | 1010.2 |
| 20260510004308 | 67 | 181 | 1.0 | 2.0 | 0.00 | 0.00 | 0.00 | 78 | 1010.0 |
| 20260510003805 | 67 | 182 | 1.0 | 2.0 | 0.00 | 0.00 | 0.00 | 77 | 1010.0 |
| 20260510003302 | 67 | 191 | 0.0 | 0.0 | 0.00 | 0.00 | 0.00 | 77 | 1009.8 |
| 20260510002801 | 67 | 180 | 2.0 | 2.0 | 0.00 | 0.00 | 0.00 | 77 | 1009.7 |
| 20260510002259 | 67 | 189 | 2.0 | 2.0 | 0.00 | 0.00 | 0.00 | 76 | 1009.6 |
| 20260510001755 | 68 | 187 | 0.0 | 0.0 | 0.00 | 0.00 | 0.00 | 75 | 1009.5 |
| 20260510001253 | 69 | 193 | 0.0 | 1.0 | 0.00 | 0.00 | 0.00 | 74 | 1009.8 |
| 20260510000749 | 69 | 184 | 1.0 | 2.0 | 0.00 | 0.00 | 0.00 | 74 | 1009.5 |
| 20260510000248 | 69 | 195 | 0.0 | 0.0 | 0.00 | 0.00 | 0.00 | 73 | 1009.4 |
| 20260509235744 | 69 | 199 | 0.0 | 2.0 | 0.00 | 0.00 | 0.00 | 73 | 1009.7 |
| 20260509235240 | 70 | 186 | 1.0 | 2.0 | 0.00 | 0.00 | 0.00 | 72 | 1009.7 |
| 20260509234735 | 70 | 204 | 0.0 | 1.0 | 0.00 | 0.00 | 0.00 | 72 | 1009.7 |
| 20260509234233 | 70 | 198 | 0.0 | 1.0 | 0.00 | 0.00 | 0.00 | 71 | 1009.4 |
| 20260509233731 | 71 | 200 | 0.0 | 1.0 | 0.00 | 0.00 | 0.00 | 71 | 1009.4 |
| 20260509233228 | 71 | 214 | 2.0 | 4.0 | 0.00 | 0.00 | 0.00 | 71 | 1009.3 |
| 20260509232724 | 71 | 202 | 2.0 | 7.0 | 0.00 | 0.00 | 0.00 | 70 | 1009.4 |
| 20260509232221 | 71 | 192 | 1.0 | 4.0 | 0.00 | 0.00 | 0.00 | 70 | 1009.5 |
| 20260509231718 | 71 | 207 | 2.0 | 7.0 | 0.00 | 0.00 | 0.00 | 69 | 1009.5 |
| 20260509231215 | 71 | 228 | 6.0 | 8.0 | 0.00 | 0.00 | 0.00 | 69 | 1009.2 |
| 20260509230713 | 71 | 180 | 2.0 | 3.0 | 0.00 | 0.00 | 0.00 | 69 | 1009.2 |
| 20260509230209 | 71 | 188 | 1.0 | 4.0 | 0.00 | 0.00 | 0.00 | 68 | 1009.1 |
| 20260509225705 | 71 | 219 | 2.0 | 3.0 | 0.00 | 0.00 | 0.00 | 68 | 1009.1 |
| 20260509225200 | 71 | 198 | 1.0 | 3.0 | 0.00 | 0.00 | 0.00 | 67 | 1009.1 |
| 20260509224651 | 72 | 191 | 0.0 | 4.0 | 0.00 | 0.00 | 0.00 | 66 | 1009.1 |
| 20260509224148 | 72 | 160 | 4.0 | 4.0 | 0.00 | 0.00 | 0.00 | 65 | 1008.7 |
| 20260509223644 | 73 | 193 | 0.0 | 4.0 | 0.00 | 0.00 | 0.00 | 64 | 1008.7 |
| 20260509223142 | 73 | 209 | 1.0 | 7.0 | 0.00 | 0.00 | 0.00 | 64 | 1008.6 |
| 20260509222639 | 74 | 176 | 4.0 | 9.0 | 0.00 | 0.00 | 0.00 | 62 | 1008.4 |
| 20260509222134 | 73 | 192 | 7.0 | 9.0 | 0.00 | 0.00 | 0.00 | 63 | 1008.4 |
| 20260509221630 | 73 | 225 | 5.0 | 10.0 | 0.00 | 0.00 | 0.00 | 61 | 1008.6 |
| 20260509221126 | 74 | 136 | 6.0 | 8.0 | 0.00 | 0.00 | 0.00 | 60 | 1008.5 |
| 20260509220622 | 75 | 216 | 2.0 | 7.0 | 0.00 | 0.00 | 0.00 | 59 | 1008.5 |
| 20260509220119 | 76 | 214 | 5.0 | 8.0 | 0.00 | 0.00 | 0.00 | 58 | 1008.5 |
| 20260509215615 | 76 | 177 | 2.0 | 8.0 | 0.00 | 0.00 | 0.00 | 58 | 1008.6 |
| 20260509215111 | 76 | 205 | 4.0 | 8.0 | 0.00 | 0.00 | 0.00 | 58 | 1008.4 |
| 20260509214608 | 76 | 191 | 3.0 | 4.0 | 0.00 | 0.00 | 0.00 | 58 | 1008.2 |
| 20260509214105 | 76 | 199 | 3.0 | 6.0 | 0.00 | 0.00 | 0.00 | 59 | 1008.7 |
| 20260509213601 | 75 | 199 | 3.0 | 4.0 | 0.00 | 0.00 | 0.00 | 59 | 1008.6 |